[[{"header":{"parameterUnit":"m.s-1","parameterCategory":1,"la1":30.2991,"la2":30.254,"lo1":-89.0895,"lo2":-89.0444,"dy":0.0017,"dx":0.0017,"nx":28,"ny":28,"refTime":"2025-08-14T21:00:00:Z","depth":0,"parameterNumber":2,"parameterNumberName":"U-component_of_WINDS"},"data":[0,0,0,0,0,0,0,0,0,0,0,0,0,0,0,0,0,0,0,0,0,0,0,0,0,0,0,0,0,0,0,0,0,0,0,0,0,0,0,0,0,0,0,0,0,0,0,0,0,0,0,0,0,0,0,0,0,0,2.7046,2.7046,0,2.7057,2.7057,2.7057,2.6956,2.6954,2.6951,2.6948,2.6964,2.6966,2.6969,0,0,0,0,0,0,0,0,0,0,0,0,0,2.694,2.6943,2.7046,2.7046,2.7046,2.7057,2.7057,2.7057,2.6957,2.6953,2.695,2.6947,2.6963,2.6966,2.697,0,0,0,0,0,0,0,0,0,0,0,0,0,2.6972,2.6944,2.7046,2.6997,2.6993,2.7057,2.7057,2.7057,2.6958,2.6953,2.6949,2.6945,2.6961,2.6966,2.697,2.7082,0,0,2.6984,2.6986,0,0,0,0,0,0,0,0,2.6971,2.6976,2.7004,2.7001,2.6996,2.7001,2.7025,2.7066,2.6959,2.6971,2.6948,2.6943,2.698,2.6982,2.6994,2.7083,2.7084,2.6985,2.6987,2.6989,2.6991,0,0,0,0,0,0,0,2.6969,2.6975,2.705,2.7005,2.7,2.6976,2.6976,2.7033,2.6999,2.697,2.6963,2.6965,2.6977,2.699,2.6993,2.7084,2.6984,2.6988,2.6991,2.6993,2.7263,2.7267,0,0,0,0,0,0,2.6973,2.6974,2.705,2.7051,2.6973,2.6981,2.6981,2.7004,2.6998,2.6993,2.6969,2.696,2.6984,2.6988,2.6994,2.7122,2.6989,2.6993,2.6996,2.7259,2.7264,2.7269,0,0,0,0,0,0,2.6971,2.698,2.705,2.701,2.7017,2.6987,2.7014,2.7006,2.7019,2.6997,2.6991,2.6988,2.6981,2.6987,2.706,2.7122,2.6995,2.7,2.7253,2.726,2.7266,2.7383,0,0,0,0,0,0,2.6968,2.698,2.7022,2.7012,2.702,2.7116,2.7018,2.7009,2.7027,2.7016,2.7014,2.7009,2.6978,2.7054,2.7065,2.7126,2.7003,2.7248,2.7256,2.7264,2.7373,2.7392,2.7409,0,0,0,0,0,2.6965,2.7056,2.7025,2.7035,2.7072,2.712,2.7124,2.7085,2.7032,2.7074,2.7059,2.7009,2.7113,2.7062,2.7074,2.7137,2.7244,2.7254,2.7264,2.7365,2.7389,2.7409,0,0,0,0,0,0,2.7077,2.7054,2.7019,2.711,2.7117,2.7102,2.7154,2.7112,2.7135,2.7125,2.7076,2.7077,2.7157,2.7154,2.7098,2.7244,2.7169,2.7182,2.7243,2.7265,2.7282,2.7281,2.7007,0,0,0,0,0,2.7111,2.7151,2.713,2.7212,2.7217,2.7185,2.7205,2.7174,2.718,2.7183,2.7174,2.7183,2.7217,2.7241,2.7271,2.7372,2.7369,2.7421,2.7439,2.7454,2.7465,2.7516,2.7538,2.7302,2.7302,2.7301,0,0,2.7185,2.7177,2.7206,2.7234,2.7236,2.7278,2.7189,2.7238,2.7269,2.7191,2.7258,2.7252,2.7259,2.7345,2.7383,2.7345,2.753,2.7467,2.7479,2.7482,2.7529,2.7551,2.7571,2.7309,2.7307,2.7306,0,0,2.7339,2.7338,2.7405,2.7408,2.7411,2.7389,2.7405,2.7396,2.7388,2.7455,2.7396,2.7433,2.7494,2.75,2.7511,2.7665,2.7619,2.7677,2.777,2.782,2.7839,2.7855,2.7908,2.7928,2.7688,2.7689,2.7689,0,2.743,2.7491,2.7446,2.7498,2.7511,2.744,2.7507,2.7513,2.7527,2.7538,2.7495,2.7568,2.7568,2.7654,2.7691,2.7703,2.7719,2.7677,2.784,2.7855,2.787,2.792,2.7941,2.7695,2.7695,2.7694,2.7693,0,2.7601,2.7644,2.7698,2.771,2.773,2.779,2.7754,2.778,2.7747,2.7729,2.7797,2.7793,2.7821,2.7839,2.7809,2.792,2.7896,2.7848,2.7772,2.79,2.7946,2.7965,2.7705,2.7703,2.7701,2.7699,0,0,2.7828,2.7812,2.7833,2.7836,2.7833,2.7866,2.7922,2.7947,2.7969,2.7981,2.8026,2.8078,2.8031,2.8044,2.8013,2.8058,2.8177,2.8003,2.8002,2.8034,2.8298,2.8334,2.8357,2.8147,2.8151,2.8153,2.8297,0,2.7977,2.807,2.803,2.8127,2.8165,2.8097,2.8146,2.815,2.8134,2.8165,2.8148,2.8185,2.8122,2.8129,2.817,2.8154,2.823,2.8144,2.8188,2.8191,2.8188,2.8382,2.842,2.8556,2.8315,2.8318,2.832,0,2.8164,2.818,2.828,2.8268,2.8282,2.8327,2.8345,2.8375,2.8377,2.8363,2.8376,2.8335,2.8389,2.8313,2.8387,2.8329,2.8345,2.834,2.8344,2.8346,2.8263,2.8388,2.8599,2.8619,2.8349,2.8347,2.8345,0,2.8316,2.8364,2.8429,2.8435,2.8422,2.8455,2.8451,2.8449,2.8466,2.8482,2.8492,2.8516,2.8529,2.8548,2.8514,2.8462,2.8591,2.8514,2.8581,2.8581,2.861,2.8609,2.8826,2.8623,2.8623,2.8623,2.8622,0,2.8486,2.855,2.8497,2.8538,2.8606,2.856,2.863,2.8619,2.8617,2.8654,2.8598,2.8634,2.8587,2.8619,2.8593,2.8657,2.8664,2.8653,2.8645,2.8658,2.8659,2.8667,2.8656,2.8628,2.8627,2.8626,2.8625,0,2.8669,2.8636,2.8702,2.8684,2.8681,2.8732,2.8717,2.8754,2.8733,2.8781,2.879,2.8759,2.8793,2.876,2.8794,2.8776,2.886,2.884,2.8859,2.8853,2.892,2.8914,2.9149,2.9177,2.8958,2.896,2.8962,0,2.8779,2.8826,2.8811,2.8831,2.883,2.8863,2.8879,2.8835,2.8853,2.8858,2.8894,2.8923,2.8943,2.9001,2.8982,2.9007,2.8985,2.9066,2.8989,2.8999,2.8984,2.8981,2.8985,2.9082,2.9084,2.9086,2.9088,0,2.8977,2.8957,2.8981,2.8999,2.9019,2.9031,2.904,2.9059,2.9013,2.9037,2.907,2.9086,2.9118,2.9147,2.9165,2.9163,2.9118,2.9112,2.9129,2.9141,2.915,2.9144,2.89,2.9107,2.9105,2.9104,2.9103,2.9102,2.9125,2.9162,2.9157,2.9185,2.9186,2.9194,2.9227,2.9209,2.9236,2.9257,2.9229,2.927,2.9269,2.9288,2.9291,2.9322,2.9288,2.9312,2.9318,2.9324,2.9333,2.9146,2.9325,2.9324,2.9324,2.9323,2.9323,0,2.9318,2.9311,2.9337,2.9348,2.937,2.9324,2.933,2.9352,2.9387,2.939,2.941,2.9447,2.9475,2.9457,2.948,2.9508,2.9488,2.9516,2.9513,2.9512,2.9363,2.9346,2.9531,2.9531,2.9531,2.9531,2.9531,2.9531,2.9421,2.9481,2.9461,2.9521,2.9513,2.955,2.9557,2.9564,2.9566,2.9609,2.963,2.9618,2.9612,2.9634,2.9656,2.965,2.9661,2.9696,2.9683,2.9544,2.9523,2.9504,2.9487,2.9699,2.9699,2.9829,2.983,2.9831]},{"header":{"parameterUnit":"m.s-1","parameterCategory":1,"la1":30.2991,"la2":30.254,"lo1":-89.0895,"lo2":-89.0444,"dy":0.0017,"dx":0.0017,"nx":28,"ny":28,"refTime":"2025-08-14T21:00:00:Z","depth":0,"parameterNumber":3,"parameterNumberName":"V-component_of_WINDS"},"data":[0,0,0,0,0,0,0,0,0,0,0,0,0,0,0,0,0,0,0,0,0,0,0,0,0,0,0,0,0,0,0,0,0,0,0,0,0,0,0,0,0,0,0,0,0,0,0,0,0,0,0,0,0,0,0,0,0,0,1.8481,1.8482,0,1.8555,1.8556,1.8557,1.8565,1.8564,1.8563,1.8563,1.8635,1.8638,1.864,0,0,0,0,0,0,0,0,0,0,0,0,0,1.8344,1.8347,1.8481,1.8482,1.8483,1.8555,1.8556,1.8557,1.8565,1.8564,1.8563,1.8562,1.8634,1.8637,1.864,0,0,0,0,0,0,0,0,0,0,0,0,0,1.8409,1.8347,1.8481,1.8496,1.8498,1.8555,1.8556,1.8557,1.8565,1.8564,1.8563,1.8562,1.8633,1.8637,1.8641,1.8687,0,0,1.8653,1.8655,0,0,0,0,0,0,0,0,1.8406,1.8414,1.8493,1.8495,1.8497,1.855,1.8534,1.8601,1.8565,1.854,1.8563,1.8561,1.8607,1.8613,1.863,1.8691,1.8694,1.8653,1.8656,1.8657,1.8658,0,0,0,0,0,0,0,1.8401,1.8411,1.851,1.8494,1.8497,1.8498,1.8506,1.8547,1.8579,1.8542,1.8542,1.8551,1.8608,1.8626,1.8631,1.8695,1.8653,1.8657,1.8659,1.8661,1.8796,1.8797,0,0,0,0,0,0,1.8394,1.8407,1.8508,1.8513,1.8448,1.8501,1.851,1.8534,1.8578,1.8584,1.8552,1.8551,1.862,1.8627,1.8634,1.869,1.8657,1.8661,1.8663,1.8795,1.8796,1.8798,0,0,0,0,0,0,1.8391,1.8403,1.8505,1.846,1.8473,1.8505,1.8531,1.8536,1.8553,1.8586,1.8592,1.8564,1.8619,1.8628,1.8674,1.8693,1.8663,1.8666,1.8793,1.8795,1.8797,1.8804,0,0,0,0,0,0,1.8387,1.8402,1.8421,1.8461,1.8476,1.8545,1.8533,1.8538,1.8561,1.856,1.8599,1.8604,1.8619,1.8668,1.8678,1.8698,1.8669,1.8792,1.8794,1.8797,1.8802,1.8806,1.8809,0,0,0,0,0,1.8382,1.8419,1.8422,1.8434,1.85,1.8546,1.8555,1.8572,1.8562,1.8581,1.8601,1.8603,1.8689,1.8673,1.8684,1.8705,1.8791,1.8794,1.8796,1.88,1.8805,1.8809,0,0,0,0,0,0,1.838,1.8425,1.8428,1.8479,1.8509,1.8547,1.8571,1.8576,1.8608,1.8606,1.8625,1.8634,1.8678,1.8696,1.8677,1.8752,1.8739,1.8744,1.8738,1.8743,1.8746,1.874,1.8673,0,0,0,0,0,1.8386,1.8421,1.8457,1.8499,1.8514,1.854,1.8561,1.8571,1.8602,1.8614,1.8639,1.8668,1.8701,1.8723,1.8756,1.8805,1.8812,1.8825,1.8828,1.8831,1.8835,1.886,1.8866,1.8807,1.8807,1.8807,0,0,1.8398,1.8426,1.8447,1.8499,1.8523,1.8558,1.855,1.8587,1.8613,1.862,1.8664,1.8683,1.8717,1.8764,1.8786,1.878,1.8853,1.8834,1.8836,1.8839,1.8864,1.8869,1.8874,1.8809,1.8809,1.8808,0,0,1.8436,1.8462,1.8499,1.8524,1.8561,1.8578,1.8586,1.8624,1.8637,1.8682,1.8688,1.8718,1.8776,1.8799,1.8819,1.8865,1.8867,1.8875,1.8893,1.8918,1.8922,1.8927,1.8942,1.8948,1.8879,1.8879,1.8879,0,1.8446,1.8499,1.8517,1.8554,1.8576,1.8585,1.8622,1.8644,1.869,1.8704,1.8698,1.877,1.8793,1.8845,1.8857,1.8872,1.8882,1.8871,1.892,1.8925,1.8929,1.8944,1.895,1.888,1.888,1.888,1.888,0,1.8508,1.8545,1.857,1.8614,1.864,1.8676,1.8699,1.8722,1.873,1.8747,1.8792,1.882,1.8859,1.8872,1.888,1.8925,1.892,1.8917,1.8904,1.8935,1.8949,1.8955,1.8881,1.8881,1.8881,1.888,0,0,1.8548,1.8602,1.861,1.863,1.8671,1.8699,1.8736,1.8774,1.8793,1.8823,1.8853,1.8902,1.8899,1.8921,1.8931,1.8953,1.8987,1.8947,1.8948,1.8953,1.9037,1.9039,1.9045,1.8989,1.899,1.8991,1.9034,0,1.859,1.8657,1.8674,1.8729,1.8762,1.8771,1.8802,1.883,1.8847,1.8877,1.8895,1.8929,1.8923,1.8936,1.8959,1.8978,1.9004,1.8976,1.9016,1.9017,1.9006,1.9053,1.9055,1.9094,1.904,1.9041,1.9041,0,1.8649,1.8682,1.8741,1.8777,1.8791,1.882,1.8855,1.8884,1.8915,1.8926,1.895,1.8959,1.8995,1.8982,1.9031,1.9012,1.9029,1.9041,1.9043,1.9047,1.903,1.9057,1.9107,1.9112,1.9051,1.905,1.9049,0,1.8671,1.8729,1.8772,1.8789,1.8832,1.8851,1.887,1.8901,1.8922,1.8953,1.8967,1.9001,1.902,1.9046,1.9063,1.9051,1.9111,1.9098,1.9119,1.9119,1.9131,1.913,1.9183,1.9144,1.9144,1.9143,1.9143,0,1.8716,1.8752,1.8782,1.8808,1.8848,1.8867,1.8905,1.8924,1.8951,1.898,1.8989,1.9016,1.9037,1.9066,1.9079,1.9118,1.9126,1.9135,1.9138,1.9134,1.9133,1.9145,1.9142,1.9145,1.9145,1.9144,1.9144,0,1.8747,1.8769,1.8816,1.8853,1.8863,1.889,1.8922,1.8947,1.8964,1.9,1.901,1.9037,1.9071,1.9091,1.9134,1.9143,1.9186,1.9188,1.9176,1.9177,1.9196,1.9194,1.9259,1.9268,1.9223,1.9223,1.9224,0,1.8774,1.8801,1.8842,1.8862,1.8881,1.8914,1.8936,1.8956,1.8978,1.9015,1.9035,1.9071,1.91,1.9155,1.9178,1.9211,1.9213,1.9233,1.9218,1.9212,1.9212,1.921,1.9212,1.9236,1.9236,1.9237,1.9237,0,1.8819,1.8829,1.8861,1.8897,1.8923,1.8952,1.898,1.8996,1.902,1.9044,1.908,1.9103,1.9148,1.9182,1.9217,1.9235,1.9239,1.9242,1.9248,1.9244,1.9235,1.9239,1.9182,1.924,1.924,1.9239,1.9239,1.9239,1.8848,1.8873,1.8905,1.894,1.8963,1.899,1.9015,1.9035,1.9066,1.9105,1.9114,1.9151,1.9181,1.9228,1.9247,1.9276,1.9272,1.9281,1.9283,1.9285,1.9285,1.9231,1.9282,1.9282,1.9282,1.9282,1.9282,0,1.8893,1.8914,1.8946,1.8986,1.9013,1.9016,1.9048,1.907,1.9103,1.9131,1.916,1.9201,1.9234,1.9259,1.9293,1.9311,1.9314,1.9319,1.9318,1.9321,1.9288,1.9278,1.9316,1.9316,1.9316,1.9316,1.9316,1.9316,1.892,1.8961,1.8974,1.9027,1.9047,1.9085,1.9103,1.9126,1.9148,1.9194,1.9222,1.9238,1.9265,1.93,1.9331,1.9337,1.9348,1.9353,1.936,1.9328,1.9324,1.932,1.9312,1.9356,1.9356,1.9391,1.9392,1.9392]}]]